ANA1263 RJNS-ROAH

Flight info

Callsign ANA1263
Flight time 2h 5m
Altitude 36000
Route MOSLO Y57 SUKBO Y52 TONAR Y525 IHEYA
Aircraft B738/M-SDE2FGHILORVWXY/L

Departure

Time 2026-04-12 04:12
Airport Mount Fuji Shizuoka Airport (RJNS)

Arrival

Time 2026-04-12 06:17
Airport Naha International Airport (ROAH)
Time Latitude Longitude Altitude Speed Heading
2026-04-12 03:28 34.79609 138.17960 448 ft 0 kts 202°
2026-04-12 04:03 34.79617 138.17964 448 ft 4 kts 202°
2026-04-12 04:03 34.79641 138.17976 448 ft 4 kts 217°
2026-04-12 04:04 34.79656 138.18000 448 ft 4 kts 263°
2026-04-12 04:04 34.79654 138.18026 448 ft 1 kts 292°
2026-04-12 04:07 34.79654 138.18025 448 ft 1 kts 292°
2026-04-12 04:08 34.79682 138.18006 448 ft 6 kts 356°
2026-04-12 04:08 34.79733 138.17991 448 ft 8 kts 320°
2026-04-12 04:08 34.79762 138.17920 448 ft 12 kts 292°
2026-04-12 04:08 34.79800 138.17806 448 ft 17 kts 292°
2026-04-12 04:09 34.79845 138.17671 449 ft 15 kts 293°
2026-04-12 04:09 34.79905 138.17641 457 ft 7 kts 17°
2026-04-12 04:09 34.79921 138.17649 459 ft 0 kts 24°
2026-04-12 04:10 34.79927 138.17652 460 ft 4 kts 23°
2026-04-12 04:10 34.79976 138.17677 463 ft 10 kts 22°
2026-04-12 04:10 34.80003 138.17735 462 ft 9 kts 108°
2026-04-12 04:11 34.80000 138.17746 462 ft 0 kts 112°
2026-04-12 04:11 34.79935 138.17935 454 ft 65 kts 112°
2026-04-12 04:11 34.79662 138.18754 433 ft 142 kts 112°
2026-04-12 04:11 34.79245 138.19986 974 ft 164 kts 113°
2026-04-12 04:12 34.78655 138.21152 1967 ft 165 kts 140°
2026-04-12 04:12 34.77746 138.21947 2827 ft 161 kts 142°
2026-04-12 04:12 34.76865 138.22774 3518 ft 165 kts 143°
2026-04-12 04:12 34.75912 138.23671 3902 ft 187 kts 143°
2026-04-12 04:13 34.74818 138.24706 4112 ft 212 kts 142°
2026-04-12 04:13 34.73588 138.25873 4304 ft 235 kts 142°
2026-04-12 04:13 34.72238 138.27155 4483 ft 257 kts 142°
2026-04-12 04:13 34.70805 138.28518 4968 ft 267 kts 142°
2026-04-12 04:14 34.69340 138.29913 5483 ft 275 kts 141°
2026-04-12 04:14 34.67813 138.31368 6060 ft 283 kts 141°
2026-04-12 04:14 34.66229 138.32875 6586 ft 292 kts 141°
2026-04-12 04:14 34.64622 138.34404 7310 ft 295 kts 142°
2026-04-12 04:15 34.62862 138.35689 7982 ft 298 kts 165°
2026-04-12 04:15 34.60824 138.35891 8707 ft 294 kts 192°
2026-04-12 04:15 34.58875 138.35238 9505 ft 290 kts 204°
2026-04-12 04:15 34.56974 138.34403 10222 ft 292 kts 205°
2026-04-12 04:16 34.55012 138.33506 10498 ft 312 kts 205°
2026-04-12 04:16 34.52969 138.32577 11226 ft 309 kts 205°
2026-04-12 04:16 34.50988 138.31693 12328 ft 298 kts 206°
2026-04-12 04:16 34.49047 138.30833 13206 ft 297 kts 206°
2026-04-12 04:17 34.47090 138.29967 13836 ft 305 kts 206°
2026-04-12 04:17 34.45029 138.29051 14002 ft 327 kts 205°
2026-04-12 04:17 34.42819 138.28074 14159 ft 348 kts 205°
2026-04-12 04:17 34.40477 138.27045 14297 ft 368 kts 205°
2026-04-12 04:18 34.38008 138.25967 14439 ft 385 kts 204°
2026-04-12 04:18 34.35452 138.24857 14832 ft 394 kts 204°
2026-04-12 04:18 34.32862 138.23736 15400 ft 397 kts 204°
2026-04-12 04:18 34.30247 138.22601 16008 ft 399 kts 205°
2026-04-12 04:19 34.27656 138.21474 16563 ft 403 kts 205°
2026-04-12 04:19 34.25006 138.20332 17092 ft 407 kts 203°
2026-04-12 04:19 34.22268 138.19362 17639 ft 411 kts 201°
2026-04-12 04:19 34.19513 138.18373 18182 ft 413 kts 203°
2026-04-12 04:20 34.16885 138.17006 18633 ft 410 kts 215°
2026-04-12 04:20 34.14472 138.15178 19107 ft 410 kts 218°
2026-04-12 04:20 34.12073 138.13301 19565 ft 412 kts 218°
2026-04-12 04:20 34.09655 138.11411 20017 ft 415 kts 218°
2026-04-12 04:21 34.07233 138.09533 20701 ft 411 kts 218°
2026-04-12 04:21 34.04853 138.07703 21353 ft 410 kts 218°
2026-04-12 04:21 34.02435 138.05853 21794 ft 413 kts 218°
2026-04-12 04:21 33.99994 138.03990 22181 ft 418 kts 218°
2026-04-12 04:22 33.97524 138.02111 22583 ft 421 kts 218°
2026-04-12 04:22 33.95051 138.00235 23088 ft 420 kts 219°
2026-04-12 04:22 33.92571 137.98356 23572 ft 422 kts 219°
2026-04-12 04:22 33.90079 137.96468 23893 ft 425 kts 219°
2026-04-12 04:23 33.87569 137.94568 24213 ft 427 kts 219°
2026-04-12 04:23 33.85051 137.92664 24562 ft 428 kts 219°
2026-04-12 04:23 33.82527 137.90756 24926 ft 429 kts 219°
2026-04-12 04:23 33.79993 137.88843 25269 ft 430 kts 219°
2026-04-12 04:24 33.77443 137.86916 25443 ft 436 kts 219°
2026-04-12 04:24 33.74865 137.84970 25803 ft 436 kts 219°
2026-04-12 04:24 33.72296 137.83036 26241 ft 435 kts 219°
2026-04-12 04:24 33.70597 137.81758 26494 ft 435 kts 219°
2026-04-12 04:25 33.68031 137.79827 26754 ft 436 kts 220°
2026-04-12 04:25 33.64620 137.77261 27243 ft 436 kts 220°
2026-04-12 04:25 33.62059 137.75338 27721 ft 433 kts 221°
2026-04-12 04:25 33.59514 137.73429 28237 ft 429 kts 221°
2026-04-12 04:26 33.57869 137.72061 28561 ft 421 kts 228°
2026-04-12 04:26 33.55779 137.69696 28996 ft 408 kts 236°
2026-04-12 04:26 33.54037 137.67065 29482 ft 397 kts 244°
2026-04-12 04:26 33.52535 137.64312 30029 ft 393 kts 245°
2026-04-12 04:27 33.51037 137.61590 30492 ft 389 kts 245°
2026-04-12 04:27 33.49544 137.58894 30897 ft 387 kts 245°
2026-04-12 04:27 33.48070 137.56252 31558 ft 378 kts 246°
2026-04-12 04:27 33.46629 137.53673 31912 ft 376 kts 246°
2026-04-12 04:28 33.45167 137.51051 32005 ft 379 kts 246°
2026-04-12 04:28 33.42247 137.45827 32023 ft 376 kts 246°
2026-04-12 04:29 33.39336 137.40638 32035 ft 374 kts 246°
2026-04-12 04:29 33.36433 137.35468 32041 ft 373 kts 246°
2026-04-12 04:30 33.33542 137.30329 32035 ft 372 kts 246°
2026-04-12 04:30 33.30650 137.25186 32336 ft 376 kts 246°
2026-04-12 04:30 33.29189 137.22597 32732 ft 374 kts 246°
2026-04-12 04:31 33.27744 137.20046 33316 ft 366 kts 246°
2026-04-12 04:31 33.26332 137.17561 33958 ft 358 kts 247°
2026-04-12 04:31 33.24948 137.15121 34379 ft 353 kts 247°
2026-04-12 04:31 33.23569 137.12679 34582 ft 355 kts 247°
2026-04-12 04:32 33.22186 137.10224 34728 ft 357 kts 247°
2026-04-12 04:32 33.20799 137.07765 34968 ft 357 kts 247°
2026-04-12 04:32 33.19410 137.05311 35247 ft 356 kts 247°
2026-04-12 04:32 33.18021 137.02860 35471 ft 356 kts 247°
2026-04-12 04:33 33.16631 137.00408 35658 ft 357 kts 246°
2026-04-12 04:33 33.15240 136.97958 35952 ft 355 kts 246°
2026-04-12 04:33 33.13872 136.95548 35954 ft 358 kts 246°
2026-04-12 04:34 33.11062 136.90597 36027 ft 364 kts 246°
2026-04-12 04:34 33.08191 136.85545 36042 ft 372 kts 246°
2026-04-12 04:35 33.05254 136.80390 36046 ft 379 kts 246°
2026-04-12 04:35 33.02269 136.75169 36033 ft 382 kts 245°
2026-04-12 04:36 32.99267 136.69926 36038 ft 384 kts 245°
2026-04-12 04:36 32.96256 136.64672 36037 ft 384 kts 245°
2026-04-12 04:37 32.93248 136.59432 36036 ft 382 kts 245°
2026-04-12 04:37 32.90252 136.54218 36027 ft 380 kts 246°
2026-04-12 04:38 32.87291 136.49070 36032 ft 378 kts 246°
2026-04-12 04:38 32.84325 136.43919 36037 ft 376 kts 246°
2026-04-12 04:39 32.81373 136.38799 36038 ft 375 kts 246°
2026-04-12 04:39 32.78427 136.33697 36028 ft 373 kts 246°
2026-04-12 04:40 32.75489 136.28614 36033 ft 373 kts 246°
2026-04-12 04:40 32.72548 136.23531 36046 ft 373 kts 246°
2026-04-12 04:41 32.69601 136.18446 36041 ft 374 kts 246°
2026-04-12 04:41 32.66642 136.13347 36032 ft 375 kts 245°
2026-04-12 04:42 32.63672 136.08238 36044 ft 377 kts 245°
2026-04-12 04:42 32.60711 136.03150 36041 ft 378 kts 245°
2026-04-12 04:43 32.56210 135.95431 36032 ft 380 kts 245°
2026-04-12 04:43 32.53201 135.90281 36038 ft 380 kts 245°
2026-04-12 04:44 32.50185 135.85126 36037 ft 380 kts 245°
2026-04-12 04:44 32.47165 135.79970 36038 ft 380 kts 245°
2026-04-12 04:45 32.44150 135.74832 36027 ft 380 kts 245°
2026-04-12 04:45 32.41138 135.69703 36034 ft 379 kts 245°
2026-04-12 04:46 32.38134 135.64595 36034 ft 378 kts 245°
2026-04-12 04:46 32.35148 135.59525 35999 ft 377 kts 245°
2026-04-12 04:47 32.32154 135.54448 36025 ft 376 kts 245°
2026-04-12 04:47 32.29163 135.49381 36036 ft 376 kts 245°
2026-04-12 04:48 32.26163 135.44304 36035 ft 377 kts 245°
2026-04-12 04:48 32.23176 135.39258 36035 ft 377 kts 245°
2026-04-12 04:49 32.20159 135.34167 36029 ft 378 kts 245°
2026-04-12 04:49 32.17129 135.29063 36039 ft 380 kts 245°
2026-04-12 04:50 32.14084 135.23938 36038 ft 382 kts 245°
2026-04-12 04:50 32.11031 135.18806 36033 ft 383 kts 245°
2026-04-12 04:51 32.07928 135.13679 36036 ft 386 kts 244°
2026-04-12 04:51 32.04635 135.08638 36037 ft 388 kts 243°
2026-04-12 04:52 32.01333 135.03647 36035 ft 388 kts 243°
2026-04-12 04:52 31.98025 134.98624 36038 ft 388 kts 243°
2026-04-12 04:53 31.94729 134.93600 36034 ft 387 kts 243°
2026-04-12 04:54 31.89812 134.86103 36028 ft 384 kts 243°
2026-04-12 04:54 31.86544 134.81125 36035 ft 384 kts 243°
2026-04-12 04:55 31.83280 134.76159 36034 ft 383 kts 243°
2026-04-12 04:55 31.80039 134.71235 36036 ft 383 kts 243°
2026-04-12 04:56 31.76768 134.66272 36033 ft 384 kts 243°
2026-04-12 04:56 31.73494 134.61311 36041 ft 384 kts 243°
2026-04-12 04:57 31.70214 134.56348 36040 ft 385 kts 243°
2026-04-12 04:57 31.66925 134.51378 36026 ft 385 kts 243°
2026-04-12 04:58 31.63613 134.46372 36039 ft 392 kts 243°
2026-04-12 04:58 31.60257 134.41306 36052 ft 399 kts 242°
2026-04-12 04:59 31.56826 134.36144 36007 ft 401 kts 242°
2026-04-12 04:59 31.53387 134.30982 36022 ft 402 kts 242°
2026-04-12 05:00 31.49941 134.25812 36028 ft 402 kts 242°
2026-04-12 05:00 31.46489 134.20639 36045 ft 403 kts 242°
2026-04-12 05:01 31.43042 134.15478 36020 ft 402 kts 242°
2026-04-12 05:01 31.39617 134.10358 36017 ft 402 kts 242°
2026-04-12 05:02 31.36168 134.05208 36028 ft 401 kts 242°
2026-04-12 05:02 31.32726 134.00075 36008 ft 401 kts 242°
2026-04-12 05:03 31.29285 133.94950 36005 ft 400 kts 242°
2026-04-12 05:03 31.25848 133.89838 36027 ft 399 kts 242°
2026-04-12 05:04 31.22415 133.84738 36029 ft 399 kts 242°
2026-04-12 05:04 31.18978 133.79639 36019 ft 398 kts 241°
2026-04-12 05:05 31.15566 133.74584 36023 ft 398 kts 241°
2026-04-12 05:05 31.12130 133.69499 36024 ft 399 kts 241°
2026-04-12 05:06 31.08691 133.64415 35998 ft 399 kts 241°
2026-04-12 05:06 31.05246 133.59329 36019 ft 400 kts 241°
2026-04-12 05:07 31.01792 133.54238 36026 ft 400 kts 240°
2026-04-12 05:07 30.98333 133.49143 36024 ft 400 kts 240°
2026-04-12 05:08 30.94873 133.44051 36008 ft 400 kts 240°
2026-04-12 05:08 30.91434 133.38996 36022 ft 401 kts 240°
2026-04-12 05:09 30.87966 133.33904 36025 ft 401 kts 240°
2026-04-12 05:09 30.84492 133.28809 36022 ft 402 kts 240°
2026-04-12 05:10 30.81011 133.23712 36015 ft 402 kts 240°
2026-04-12 05:10 30.77526 133.18615 36026 ft 402 kts 240°
2026-04-12 05:11 30.74037 133.13517 36026 ft 403 kts 240°
2026-04-12 05:11 30.70542 133.08419 36002 ft 403 kts 240°
2026-04-12 05:12 30.67040 133.03318 36011 ft 404 kts 240°
2026-04-12 05:12 30.63558 132.98251 36023 ft 404 kts 240°
2026-04-12 05:13 30.60048 132.93150 36024 ft 404 kts 240°
2026-04-12 05:13 30.56535 132.88052 36023 ft 404 kts 240°
2026-04-12 05:14 30.53016 132.82952 36021 ft 404 kts 240°
2026-04-12 05:14 30.50098 132.78728 36019 ft 404 kts 240°
2026-04-12 05:15 30.46585 132.73648 36021 ft 403 kts 240°
2026-04-12 05:15 30.43075 132.68579 36010 ft 403 kts 239°
2026-04-12 05:16 30.39567 132.63519 36017 ft 403 kts 239°
2026-04-12 05:16 30.36049 132.58450 36027 ft 404 kts 239°
2026-04-12 05:17 30.32523 132.53377 36018 ft 405 kts 239°
2026-04-12 05:17 30.28986 132.48295 36010 ft 405 kts 239°
2026-04-12 05:18 30.25468 132.43247 36026 ft 406 kts 239°
2026-04-12 05:18 30.21918 132.38158 36030 ft 406 kts 239°
2026-04-12 05:19 30.18362 132.33070 36018 ft 407 kts 239°
2026-04-12 05:19 30.14795 132.27971 36007 ft 407 kts 239°
2026-04-12 05:20 30.11232 132.22883 36017 ft 407 kts 239°
2026-04-12 05:20 30.07663 132.17794 36028 ft 408 kts 239°
2026-04-12 05:21 30.04085 132.12698 35988 ft 408 kts 239°
2026-04-12 05:21 30.00504 132.07605 36003 ft 408 kts 239°
2026-04-12 05:22 29.96946 132.02551 36020 ft 409 kts 239°
2026-04-12 05:22 29.93358 131.97459 35935 ft 410 kts 239°
2026-04-12 05:22 29.91559 131.94909 35673 ft 409 kts 239°
2026-04-12 05:23 29.89768 131.92376 35414 ft 405 kts 238°
2026-04-12 05:23 29.87997 131.89869 35187 ft 404 kts 238°
2026-04-12 05:23 29.86222 131.87354 34957 ft 404 kts 238°
2026-04-12 05:23 29.84454 131.84854 34722 ft 400 kts 238°
2026-04-12 05:24 29.82700 131.82377 34498 ft 398 kts 238°
2026-04-12 05:24 29.80941 131.79906 34282 ft 399 kts 237°
2026-04-12 05:24 29.79151 131.77458 34066 ft 399 kts 237°
2026-04-12 05:24 29.77349 131.75025 33820 ft 399 kts 237°
2026-04-12 05:25 29.75565 131.72627 33533 ft 399 kts 236°
2026-04-12 05:25 29.73752 131.70190 33280 ft 400 kts 236°
2026-04-12 05:25 29.71940 131.67752 33031 ft 401 kts 236°
2026-04-12 05:25 29.70128 131.65311 32786 ft 402 kts 236°
2026-04-12 05:26 29.68311 131.62861 32542 ft 404 kts 236°
2026-04-12 05:26 29.66477 131.60387 32297 ft 406 kts 236°
2026-04-12 05:26 29.64639 131.57911 32088 ft 408 kts 236°
2026-04-12 05:27 29.60952 131.52944 32006 ft 409 kts 236°
2026-04-12 05:27 29.57269 131.47991 31996 ft 410 kts 236°
2026-04-12 05:28 29.53560 131.43009 31998 ft 410 kts 236°
2026-04-12 05:28 29.49891 131.37993 31994 ft 407 kts 238°
2026-04-12 05:28 29.48123 131.35467 31799 ft 403 kts 238°
2026-04-12 05:29 29.46377 131.32948 31573 ft 405 kts 238°
2026-04-12 05:29 29.44615 131.30398 31344 ft 410 kts 238°
2026-04-12 05:29 29.42830 131.27820 31117 ft 414 kts 238°
2026-04-12 05:29 29.41036 131.25243 30882 ft 414 kts 238°
2026-04-12 05:30 29.39237 131.22670 30660 ft 414 kts 238°
2026-04-12 05:30 29.37437 131.20102 30427 ft 414 kts 238°
2026-04-12 05:30 29.35651 131.17557 30209 ft 414 kts 238°
2026-04-12 05:30 29.33843 131.14984 30044 ft 414 kts 237°
2026-04-12 05:31 29.32035 131.12413 30009 ft 415 kts 237°
2026-04-12 05:31 29.28404 131.07253 29998 ft 416 kts 237°
2026-04-12 05:32 29.24768 131.02093 29970 ft 417 kts 237°
2026-04-12 05:32 29.22938 130.99497 29673 ft 418 kts 237°
2026-04-12 05:32 29.21138 130.96946 29415 ft 417 kts 237°
2026-04-12 05:32 29.19314 130.94364 29156 ft 418 kts 237°
2026-04-12 05:33 29.17477 130.91763 28900 ft 420 kts 237°
2026-04-12 05:33 29.15638 130.89161 28648 ft 421 kts 237°
2026-04-12 05:33 29.13795 130.86557 28400 ft 422 kts 237°
2026-04-12 05:33 29.11942 130.83938 28145 ft 423 kts 237°
2026-04-12 05:34 29.10094 130.81330 28034 ft 422 kts 236°
2026-04-12 05:34 29.08243 130.78720 27994 ft 423 kts 236°
2026-04-12 05:34 29.06390 130.76107 27996 ft 423 kts 236°
2026-04-12 05:34 29.04529 130.73486 27975 ft 424 kts 236°
2026-04-12 05:35 29.02670 130.70869 27991 ft 423 kts 236°
2026-04-12 05:35 29.00816 130.68259 27984 ft 423 kts 236°
2026-04-12 05:35 28.98982 130.65681 27988 ft 423 kts 236°
2026-04-12 05:35 28.97124 130.63070 27990 ft 424 kts 236°
2026-04-12 05:36 28.95266 130.60461 27987 ft 424 kts 236°
2026-04-12 05:36 28.93407 130.57851 27992 ft 424 kts 236°
2026-04-12 05:36 28.91545 130.55238 27982 ft 424 kts 236°
2026-04-12 05:36 28.89685 130.52631 27969 ft 424 kts 236°
2026-04-12 05:37 28.87819 130.50017 27987 ft 424 kts 236°
2026-04-12 05:37 28.85957 130.47410 27981 ft 424 kts 236°
2026-04-12 05:37 28.84096 130.44806 27983 ft 424 kts 236°
2026-04-12 05:37 28.82232 130.42199 27986 ft 424 kts 236°
2026-04-12 05:38 28.80368 130.39594 27993 ft 424 kts 236°
2026-04-12 05:38 28.78507 130.36995 27985 ft 424 kts 236°
2026-04-12 05:38 28.76642 130.34392 27997 ft 424 kts 236°
2026-04-12 05:38 28.74775 130.31788 27965 ft 424 kts 236°
2026-04-12 05:39 28.72912 130.29191 27974 ft 424 kts 236°
2026-04-12 05:39 28.71068 130.26622 27984 ft 424 kts 236°
2026-04-12 05:39 28.69198 130.24017 27988 ft 424 kts 236°
2026-04-12 05:39 28.67329 130.21417 27984 ft 424 kts 236°
2026-04-12 05:40 28.65459 130.18816 27985 ft 425 kts 236°
2026-04-12 05:40 28.63585 130.16212 27984 ft 425 kts 236°
2026-04-12 05:40 28.61707 130.13604 27979 ft 425 kts 236°
2026-04-12 05:40 28.59835 130.11005 27976 ft 425 kts 236°
2026-04-12 05:41 28.57958 130.08402 27971 ft 425 kts 236°
2026-04-12 05:41 28.56082 130.05802 27974 ft 425 kts 236°
2026-04-12 05:41 28.54207 130.03204 27975 ft 425 kts 236°
2026-04-12 05:41 28.52328 130.00602 27975 ft 425 kts 236°
2026-04-12 05:42 28.50450 129.98003 27968 ft 425 kts 236°
2026-04-12 05:42 28.48571 129.95405 27971 ft 425 kts 236°
2026-04-12 05:42 28.46692 129.92808 27968 ft 425 kts 236°
2026-04-12 05:43 28.42974 129.87679 27821 ft 415 kts 236°
2026-04-12 05:43 28.41146 129.85163 27138 ft 411 kts 236°
2026-04-12 05:43 28.39329 129.82660 26545 ft 408 kts 236°
2026-04-12 05:43 28.37541 129.80198 26099 ft 400 kts 236°
2026-04-12 05:44 28.35782 129.77778 25578 ft 396 kts 236°
2026-04-12 05:44 28.34037 129.75375 24990 ft 393 kts 236°
2026-04-12 05:44 28.32303 129.72988 24399 ft 391 kts 236°
2026-04-12 05:44 28.30577 129.70614 23837 ft 388 kts 236°
2026-04-12 05:45 28.28860 129.68255 23307 ft 384 kts 236°
2026-04-12 05:45 28.27168 129.65931 22765 ft 380 kts 236°
2026-04-12 05:45 28.25490 129.63629 22234 ft 376 kts 236°
2026-04-12 05:45 28.23853 129.61383 22086 ft 375 kts 236°
2026-04-12 05:46 28.22169 129.59067 22006 ft 385 kts 236°
2026-04-12 05:46 28.20444 129.56695 21980 ft 394 kts 236°
2026-04-12 05:46 28.18683 129.54276 21978 ft 400 kts 235°
2026-04-12 05:46 28.16913 129.51854 21961 ft 397 kts 235°
2026-04-12 05:47 28.15149 129.49445 21966 ft 396 kts 235°
2026-04-12 05:47 28.13408 129.47070 21955 ft 396 kts 235°
2026-04-12 05:47 28.11648 129.44667 21962 ft 396 kts 235°
2026-04-12 05:47 28.09882 129.42257 21970 ft 396 kts 235°
2026-04-12 05:48 28.08123 129.39856 21967 ft 397 kts 235°
2026-04-12 05:48 28.06359 129.37451 21957 ft 397 kts 235°
2026-04-12 05:48 28.04595 129.35046 21967 ft 396 kts 235°
2026-04-12 05:48 28.02833 129.32645 21968 ft 396 kts 235°
2026-04-12 05:49 28.01070 129.30246 21961 ft 396 kts 235°
2026-04-12 05:49 27.99308 129.27847 21960 ft 396 kts 235°
2026-04-12 05:49 27.97547 129.25453 21948 ft 396 kts 235°
2026-04-12 05:49 27.95786 129.23059 21957 ft 396 kts 235°
2026-04-12 05:50 27.94025 129.20665 21963 ft 396 kts 235°
2026-04-12 05:50 27.92260 129.18269 21956 ft 396 kts 235°
2026-04-12 05:50 27.90494 129.15871 21952 ft 396 kts 235°
2026-04-12 05:50 27.88754 129.13511 21954 ft 396 kts 235°
2026-04-12 05:51 27.86986 129.11115 21967 ft 396 kts 235°
2026-04-12 05:51 27.85220 129.08723 21960 ft 396 kts 235°
2026-04-12 05:51 27.83455 129.06333 21955 ft 396 kts 235°
2026-04-12 05:51 27.81686 129.03940 21945 ft 396 kts 235°
2026-04-12 05:52 27.79920 129.01551 21948 ft 396 kts 235°
2026-04-12 05:52 27.78147 128.99154 21948 ft 396 kts 235°
2026-04-12 05:52 27.76402 128.96797 21956 ft 396 kts 235°
2026-04-12 05:52 27.74630 128.94403 21954 ft 398 kts 235°
2026-04-12 05:53 27.72853 128.92005 21956 ft 398 kts 235°
2026-04-12 05:53 27.71073 128.89604 21949 ft 399 kts 235°
2026-04-12 05:53 27.69294 128.87206 21950 ft 398 kts 235°
2026-04-12 05:53 27.67515 128.84810 21943 ft 398 kts 235°
2026-04-12 05:54 27.65739 128.82419 21940 ft 397 kts 235°
2026-04-12 05:54 27.63966 128.80034 21942 ft 396 kts 235°
2026-04-12 05:54 27.62196 128.77653 21941 ft 396 kts 235°
2026-04-12 05:54 27.60423 128.75269 21940 ft 395 kts 235°
2026-04-12 05:55 27.58655 128.72894 21941 ft 395 kts 235°
2026-04-12 05:55 27.56910 128.70550 21941 ft 395 kts 235°
2026-04-12 05:55 27.55137 128.68171 21941 ft 395 kts 235°
2026-04-12 05:55 27.53369 128.65799 21947 ft 396 kts 235°
2026-04-12 05:56 27.51598 128.63425 21945 ft 396 kts 235°
2026-04-12 05:56 27.49825 128.61049 21929 ft 396 kts 234°
2026-04-12 05:56 27.48051 128.58673 21935 ft 396 kts 234°
2026-04-12 05:56 27.46274 128.56294 21941 ft 397 kts 234°
2026-04-12 05:57 27.44498 128.53918 21941 ft 397 kts 234°
2026-04-12 05:57 27.42715 128.51535 21940 ft 397 kts 234°
2026-04-12 05:57 27.40936 128.49157 21938 ft 398 kts 234°
2026-04-12 05:57 27.39150 128.46773 21943 ft 398 kts 234°
2026-04-12 05:58 27.37386 128.44418 21943 ft 398 kts 234°
2026-04-12 05:58 27.35600 128.42036 21941 ft 398 kts 234°
2026-04-12 05:58 27.33815 128.39656 21920 ft 398 kts 234°
2026-04-12 05:58 27.32025 128.37270 21926 ft 399 kts 234°
2026-04-12 05:59 27.30235 128.34885 21938 ft 400 kts 234°
2026-04-12 05:59 27.28441 128.32497 21949 ft 400 kts 234°
2026-04-12 05:59 27.26639 128.30099 21941 ft 402 kts 234°
2026-04-12 05:59 27.24832 128.27695 21932 ft 403 kts 234°
2026-04-12 06:00 27.23022 128.25290 21647 ft 404 kts 234°
2026-04-12 06:00 27.21212 128.22888 21058 ft 399 kts 234°
2026-04-12 06:00 27.19433 128.20528 20487 ft 393 kts 234°
2026-04-12 06:00 27.17549 128.18318 19892 ft 393 kts 227°
2026-04-12 06:01 27.15367 128.16467 19313 ft 395 kts 217°
2026-04-12 06:01 27.13030 128.14872 18738 ft 391 kts 218°
2026-04-12 06:01 27.10752 128.13238 18241 ft 385 kts 218°
2026-04-12 06:01 27.08548 128.11636 18076 ft 369 kts 219°
2026-04-12 06:02 27.06415 128.10085 17647 ft 362 kts 219°
2026-04-12 06:02 27.04330 128.08563 17023 ft 361 kts 218°
2026-04-12 06:02 27.02228 128.07015 16396 ft 361 kts 218°
2026-04-12 06:02 27.00139 128.05463 15843 ft 359 kts 218°
2026-04-12 06:03 26.98072 128.03915 15278 ft 354 kts 218°
2026-04-12 06:03 26.96038 128.02375 14533 ft 353 kts 218°
2026-04-12 06:03 26.94008 128.00820 13809 ft 353 kts 218°
2026-04-12 06:03 26.91997 127.99260 13064 ft 350 kts 218°
2026-04-12 06:04 26.90657 127.98204 12587 ft 347 kts 218°
2026-04-12 06:04 26.88708 127.96638 11922 ft 342 kts 219°
2026-04-12 06:04 26.86861 127.95051 11402 ft 334 kts 220°
2026-04-12 06:04 26.85102 127.93451 11215 ft 316 kts 221°
2026-04-12 06:05 26.83450 127.91927 11101 ft 298 kts 221°
2026-04-12 06:05 26.81896 127.90490 11028 ft 282 kts 221°
2026-04-12 06:05 26.80422 127.89131 10928 ft 267 kts 221°
2026-04-12 06:05 26.79007 127.87828 10605 ft 261 kts 221°
2026-04-12 06:06 26.77603 127.86536 10184 ft 262 kts 220°
2026-04-12 06:06 26.76197 127.85245 9790 ft 261 kts 220°
2026-04-12 06:06 26.74796 127.83962 9361 ft 259 kts 220°
2026-04-12 06:06 26.73408 127.82692 8967 ft 257 kts 220°
2026-04-12 06:07 26.72024 127.81426 8551 ft 256 kts 220°
2026-04-12 06:07 26.70643 127.80164 8293 ft 256 kts 220°
2026-04-12 06:07 26.69270 127.78910 8023 ft 254 kts 220°
2026-04-12 06:07 26.67829 127.77822 7688 ft 256 kts 207°
2026-04-12 06:08 26.66188 127.77051 7289 ft 256 kts 204°
2026-04-12 06:08 26.64539 127.76311 6898 ft 255 kts 204°
2026-04-12 06:08 26.62896 127.75575 6510 ft 254 kts 204°
2026-04-12 06:08 26.61258 127.74838 6164 ft 253 kts 204°
2026-04-12 06:09 26.59631 127.74104 5809 ft 251 kts 205°
2026-04-12 06:09 26.58010 127.73370 5470 ft 251 kts 205°
2026-04-12 06:09 26.56399 127.72639 5183 ft 248 kts 205°
2026-04-12 06:09 26.54812 127.71920 4818 ft 245 kts 204°
2026-04-12 06:10 26.53233 127.71202 4421 ft 244 kts 204°
2026-04-12 06:10 26.51660 127.70488 4043 ft 243 kts 204°
2026-04-12 06:10 26.50099 127.69780 3787 ft 240 kts 204°
2026-04-12 06:10 26.48558 127.69080 3482 ft 239 kts 204°
2026-04-12 06:11 26.47022 127.68382 3115 ft 238 kts 204°
2026-04-12 06:11 26.45518 127.67699 2759 ft 235 kts 204°
2026-04-12 06:11 26.44012 127.67015 2416 ft 233 kts 204°
2026-04-12 06:11 26.42514 127.66335 2056 ft 231 kts 204°
2026-04-12 06:12 26.41037 127.65664 1761 ft 227 kts 204°
2026-04-12 06:12 26.39621 127.65022 1679 ft 214 kts 204°
2026-04-12 06:12 26.38282 127.64416 1542 ft 202 kts 204°
2026-04-12 06:12 26.37005 127.63837 1307 ft 196 kts 204°
2026-04-12 06:13 26.35738 127.63262 1264 ft 196 kts 203°
2026-04-12 06:13 26.34479 127.62706 1212 ft 192 kts 198°
2026-04-12 06:13 26.33175 127.62619 1209 ft 185 kts 179°
2026-04-12 06:13 26.31938 127.62681 1207 ft 170 kts 182°
2026-04-12 06:14 26.30806 127.62722 1169 ft 155 kts 182°
2026-04-12 06:14 26.29754 127.62772 1199 ft 149 kts 182°
2026-04-12 06:14 26.28766 127.62822 1207 ft 137 kts 182°
2026-04-12 06:14 26.27854 127.62868 1190 ft 131 kts 182°
2026-04-12 06:15 26.26954 127.62912 1208 ft 131 kts 183°
2026-04-12 06:15 26.26034 127.62957 1176 ft 133 kts 183°
2026-04-12 06:15 26.25092 127.63004 1009 ft 136 kts 183°
2026-04-12 06:15 26.24144 127.63052 836 ft 136 kts 182°
2026-04-12 06:16 26.23213 127.63099 658 ft 132 kts 182°
2026-04-12 06:16 26.22312 127.63148 464 ft 128 kts 181°
2026-04-12 06:16 26.21407 127.63191 284 ft 131 kts 181°
2026-04-12 06:16 26.20503 127.63231 106 ft 128 kts 180°
2026-04-12 06:17 26.19643 127.63272 18 ft 110 kts 179°
2026-04-12 06:17 26.19098 127.63296 14 ft 47 kts 178°
2026-04-12 06:17 26.18867 127.63314 14 ft 30 kts 167°
2026-04-12 06:17 26.18692 127.63400 15 ft 19 kts 148°
2026-04-12 06:18 26.18632 127.63463 17 ft 9 kts 96°
2026-04-12 06:18 26.18670 127.63508 16 ft 9 kts
2026-04-12 06:18 26.18747 127.63505 16 ft 15 kts 358°
2026-04-12 06:18 26.18884 127.63498 16 ft 24 kts 358°
2026-04-12 06:19 26.19068 127.63490 16 ft 27 kts 357°
2026-04-12 06:19 26.19251 127.63480 15 ft 25 kts 357°
2026-04-12 06:19 26.19422 127.63473 16 ft 24 kts 358°
2026-04-12 06:19 26.19583 127.63465 16 ft 24 kts 358°
2026-04-12 06:20 26.19777 127.63456 16 ft 30 kts 357°
2026-04-12 06:20 26.19977 127.63446 16 ft 28 kts 358°
2026-04-12 06:20 26.20152 127.63439 16 ft 21 kts 358°
2026-04-12 06:20 26.20262 127.63434 16 ft 10 kts 358°
2026-04-12 06:21 26.20301 127.63486 16 ft 10 kts 81°
2026-04-12 06:21 26.20304 127.63565 16 ft 12 kts 88°
2026-04-12 06:21 26.20308 127.63694 16 ft 22 kts 88°
2026-04-12 06:21 26.20315 127.63879 16 ft 24 kts 88°
2026-04-12 06:22 26.20322 127.64057 16 ft 23 kts 87°
2026-04-12 06:22 26.20329 127.64225 16 ft 16 kts 88°
2026-04-12 06:22 26.20357 127.64308 16 ft 11 kts 33°
2026-04-12 06:22 26.20434 127.64314 16 ft 11 kts 358°
2026-04-12 06:23 26.20526 127.64309 16 ft 16 kts 357°
2026-04-12 06:23 26.20643 127.64332 16 ft 17 kts 13°
2026-04-12 06:23 26.20759 127.64360 17 ft 17 kts 12°
2026-04-12 06:23 26.20859 127.64385 15 ft 7 kts 15°
2026-04-12 06:24 26.20897 127.64408 16 ft 6 kts 39°
2026-04-12 06:24 26.20925 127.64464 16 ft 12 kts 88°
2026-04-12 06:24 26.20902 127.64558 17 ft 14 kts 107°
2026-04-12 06:24 26.20903 127.64682 15 ft 17 kts 87°
2026-04-12 06:25 26.20886 127.64775 18 ft 11 kts 133°
2026-04-12 06:25 26.20845 127.64823 21 ft 6 kts 133°
2026-04-12 06:25 26.20829 127.64843 21 ft 0 kts 133°